Location: Unspecified
(44.0704°N, 88.6889°W)
Time: 00:23:33
(UTC+02:00)

Altair - Pass Details

Date: 16 June 2019
Orbit: 1501 x 1683 km, 47.2° (Epoch: 19 July)

Event Time Altitude Azimuth Distance (km) Brightness Sun altitude
Rises 09:23:45 0° 284° (WNW) 4,845 10.0 -19.6°
Reaches altitude 10° 09:26:51 10° 286° (WNW) 3,879 9.5 -19.4°
Maximum altitude 09:36:53 82° 15° (NNE) 1,689 7.7 -18.7°
Drops below altitude 10° 09:47:07 10° 104° (ESE) 3,943 9.8 -17.9°
Sets 09:50:17 0° 105° (ESE) 4,928 10.3 -17.6°
